This demonstration page uses our WeatherBlox Daily Observations layout. Learn more.

Left ArrowRight Arrow

Hourly Observations for May 14, 2017

Temp ( °F °C ) Dew Point ( °F °C ) Humidity (%) Winds ( mph kmh ) Pressure ( in mb ) Visibility ( mi km ) Precip ( " mm )
12:56 am 00:56 Clear 66 18.9 51 10.7 59 59 S 8 13 29.79 1009 10 16 0.00 0.00
1:56 am 01:56 Clear 65 18.2 51 10.8 62 62 S 9 15 29.78 1009 10 16 0.00 0.00
2:56 am 02:56 Clear 63 17.2 51 10.8 66 66 SSE 12 19 29.77 1008 10 16 0.00 0.00
3:56 am 03:56 Clear 61 16 52 10.9 72 72 SSE 9 15 29.76 1008 10 16 0.00 0.00
4:56 am 04:56 Mostly Clear 62 16.4 51 10.7 69 69 SSE 9 15 29.76 1008 10 16 0.00 0.00
5:56 am 05:56 Partly Cloudy 60 15.8 51 10.5 71 71 SSE 8 13 29.77 1008 10 16 0.00 0.00
6:56 am 06:56 Mostly Cloudy 62 16.4 51 10.7 69 69 SSE 13 20 29.76 1008 10 16 0.00 0.00
7:56 am 07:56 Mostly Cloudy 64 18 51 10.4 61 61 SSE 13 20 29.78 1009 10 16 0.00 0.00
8:56 am 08:56 Partly Cloudy 67 19.7 51 10.7 56 56 SSE 16 26 29.76 1008 10 16 0.00 0.00
9:56 am 09:56 Sunny 71 21.8 53 11.8 53 53 S 18 30 29.74 1007 10 16 0.00 0.00
10:56 am 10:56 Sunny 75 23.7 54 12 48 48 SSE 17 28 29.73 1007 10 16 0.00 0.00
11:56 am 11:56 Sunny 79 26.1 53 11.8 41 41 S 18 30 29.71 1006 10 16 0.00 0.00
12:56 pm 12:56 Sunny 82 27.9 53 11.8 37 37 S 15 24 29.69 1005 10 16 0.00 0.00
1:45 pm 13:45 Sunny 84 29 54 12 35 35 SW 16 26 29.68 1005 10 16 0.00 0.00
1:49 pm 13:49 Sunny 84 29 54 12 35 35 S 18 30 29.68 1005 10 16 0.00 0.00
1:56 pm 13:56 Sunny 85 29.2 54 12.1 35 35 S 17 28 29.68 1005 10 16 0.00 0.00
2:56 pm 14:56 Sunny 86 30.2 55 13 35 35 SSW 13 20 29.68 1005 10 16 0.00 0.00
3:56 pm 15:56 Sunny 88 31 54 12.3 32 32 SSW 13 20 29.67 1005 10 16 0.00 0.00
4:56 pm 16:56 Sunny 89 31.5 54 12.3 31 31 SSW 10 17 29.66 1004 10 16 0.00 0.00
5:56 pm 17:56 Sunny 88 31.3 56 13.1 33 33 SW 10 17 29.66 1004 10 16 0.00 0.00
6:56 pm 18:56 Sunny 88 31.1 55 12.9 33 33 SW 8 13 29.66 1004 10 16 0.00 0.00
7:56 pm 19:56 Sunny 85 29.6 57 13.7 38 38 SSW 5 7 29.67 1005 10 16 0.00 0.00
8:56 pm 20:56 Clear 71 21.6 62 16.7 74 74 Calm 29.68 1005 10 16 0.00 0.00
9:56 pm 21:56 Clear 66 19.1 60 15.7 81 81 Calm 29.70 1006 10 16 0.00 0.00
10:56 pm 22:56 Clear 64 17.8 59 15.2 85 85 Calm 29.72 1007 10 16 0.00 0.00
11:56 pm 23:56 Clear 65 18.4 60 15.6 84 84 S 5 7 29.72 1007 10 16 0.00 0.00

Powered by AerisWeather